Weather History for CYYG - February, 2013

Change the Weather History Date:

Saturday, February 23, 2013

  Actual Average Record
Temperature  
Mean Temperature 18 °F -  
Max Temperature 26 °F 31 °F 42 °F (2003)
Min Temperature 6 °F 17 °F -7 °F (2001)
Degree Days  
Heating Degree Days 47    
Moisture  
Dew Point 13 °F    
Average Humidity 70    
Maximum Humidity 92    
Minimum Humidity 53    
Precipitation  
Precipitation 0.00 in 0.12 in - ()
Sea Level Pressure  
Sea Level Pressure 30.30 in    
Wind  
Wind Speed 6 mph ()    
Max Wind Speed 12 mph    
Max Gust Speed 18 mph    
Visibility 15.0 miles    
Events Snow    
Averages and records for this station are not official NWS values.
T = Trace of Precipitation, MM = Missing Value Source: Averaged Metar Reports

Daily Weather History Graph

Daily Weather History Graph

Search for Another Location

Airport or City:

Trip Planner

Search our weather history database for the weather conditions in past years. The results will help you decide how hot, cold, wet, or windy it might be!

Date:

Astronomy

Feb. 23, 2013 Rise Set
Actual Time 7:01 AM AST 5:50 PM AST
Civil Twilight 6:31 AM AST 6:20 PM AST
Nautical Twilight 5:56 AM AST 6:55 PM AST
Astronomical Twilight 5:22 AM AST 7:30 PM AST
Moon 3:52 PM AST (2/23) 5:26 AM AST (2/23)
Length of Visible Light 11h 49m
Length of Day
10h 48m
Waxing Gibbous, 95% of the Moon is Illuminated
Feb 23
Waxing Gibbous
Feb 25
Full
Mar 4
Last Quarter
Mar 11
New
Mar 19
First Quarter

Hourly Weather History & Observations

Time (AST) Temp. Windchill Dew Point Humidity Pressure Visibility Wind Dir Wind Speed Gust Speed Precip Events Conditions
12:00 AM 23.0 °F 12.4 °F 14.0 °F 68% 30.32 in 15.0 mi North 10.4 mph 18.4 mph N/A Snow Light Snow Showers
1:00 AM 23.0 °F 11.7 °F 14.0 °F 68% 30.32 in 15.0 mi NNE 11.5 mph - N/A Snow Light Snow Showers
2:00 AM 23 °F - 15 °F 59% 30.33 in 15 mi North 4.6 mph - - Snow Light Snow Showers
2:00 AM 23.0 °F 17.0 °F 14.0 °F 68% 30.33 in 15.0 mi North 4.6 mph - N/A Snow Light Snow Showers
3:00 AM 23.0 °F 13.1 °F 14.0 °F 68% 30.33 in 15.0 mi North 9.2 mph - N/A Snow Light Snow Showers
4:00 AM 23.0 °F 14.7 °F 14.0 °F 68% 30.32 in 15.0 mi North 6.9 mph - N/A Snow Light Snow Showers
5:00 AM 23.0 °F 15.8 °F 14.0 °F 68% 30.32 in 15.0 mi North 5.8 mph - N/A Snow Light Snow Showers
6:00 AM 23.0 °F 17.0 °F 14.0 °F 68% 30.31 in 15.0 mi NNW 4.6 mph - N/A Snow Light Snow Showers
7:00 AM 21.2 °F 16.4 °F 14.0 °F 74% 30.32 in 15.0 mi NNW 3.5 mph - N/A Snow Light Snow Showers
7:22 AM 21.2 °F 13.6 °F 14.0 °F 74% 30.32 in 15.0 mi North 5.8 mph - N/A   Mostly Cloudy
8:00 AM 22 °F - 13 °F 58% 30.33 in 15 mi NNW 4.6 mph - - Snow Light Snow Showers
8:00 AM 23.0 °F 15.8 °F 14.0 °F 68% 30.33 in 15.0 mi NNW 5.8 mph - N/A   Mostly Cloudy
9:00 AM 23.0 °F 15.8 °F 14.0 °F 68% 30.34 in 15.0 mi NW 5.8 mph - N/A   Mostly Cloudy
10:00 AM 24.8 °F 14.0 °F 14.0 °F 64% 30.32 in 15.0 mi NNW 11.5 mph - N/A   Scattered Clouds
11:00 AM 24.8 °F 15.3 °F 12.2 °F 59% 30.32 in 15.0 mi NNW 9.2 mph - N/A   Mostly Cloudy
12:00 PM 24.8 °F 16.1 °F 14.0 °F 64% 30.32 in 15.0 mi NNW 8.1 mph - N/A   Mostly Cloudy
12:35 PM 24.8 °F 16.1 °F 12.2 °F 59% 30.30 in 15.0 mi NNW 8.1 mph - N/A Snow Light Snow
1:00 PM 24.8 °F 17.9 °F 12.2 °F 59% 30.30 in 15.0 mi North 5.8 mph - N/A Snow Light Snow
2:00 PM 25 °F - 15 °F 53% 30.28 in 15 mi North 9.2 mph - - Snow Light Snow
2:00 PM 24.8 °F 17.9 °F 15.8 °F 69% 30.28 in 15.0 mi NNW 5.8 mph - N/A Snow Light Snow
3:00 PM 24.8 °F 15.3 °F 14.0 °F 64% 30.27 in 15.0 mi North 9.2 mph - N/A   Scattered Clouds
4:00 PM 23.0 °F 14.7 °F 14.0 °F 68% 30.26 in 15.0 mi North 6.9 mph - N/A   Scattered Clouds
5:00 PM 23.0 °F 15.8 °F 14.0 °F 68% 30.26 in 15.0 mi North 5.8 mph - N/A   Partly Cloudy
6:00 PM 21.2 °F 12.6 °F 14.0 °F 74% 30.25 in 15.0 mi NNE 6.9 mph - N/A   Partly Cloudy
7:00 PM 17.6 °F - 12.2 °F 79% 30.25 in 15.0 mi NNW 2.3 mph - N/A   Partly Cloudy
8:00 PM 15 °F - 11 °F 79% 30.25 in 15 mi NW 2.3 mph - -   Partly Cloudy
8:00 PM 14.0 °F - 10.4 °F 86% 30.25 in 15.0 mi NNW 2.3 mph - N/A   Partly Cloudy
9:00 PM 14.0 °F - 10.4 °F 86% 30.25 in 15.0 mi West 2.3 mph - N/A   Partly Cloudy
10:00 PM 10.4 °F - 8.6 °F 92% 30.24 in 15.0 mi Calm Calm - N/A   Mostly Cloudy
11:00 PM 6.8 °F - 5.0 °F 92% 30.24 in 15.0 mi NNW 2.3 mph - N/A   Scattered Clouds